Simultaneous Nadir Overpasses (SNOs) Predictions

Prediction of SNOs between GOES-17 and LANDSAT-8 Satellite Orbit:

Table of predicted SNOs for the next 14.0 days since TLE Epoch: 8/12/2023
Index Date Time (GOES-17) GOES-17 Lat,Lon LANDSAT-8 Lat,Lon Distance(km) Time Diff (sec)
1 08/13/2023 17:00:24 -0.00,-104.72 -0.63,-101.81 331.38 80
2 08/14/2023 05:21:49 0.00,-104.70 -0.46,-107.00 261.38 80
3 08/16/2023 05:06:59 -0.00,-104.70 0.14,-104.04 74.32 80
4 08/18/2023 04:54:49 -0.01,-104.70 0.74,-101.09 410.43 80
5 08/18/2023 17:16:06 0.00,-104.72 0.30,-106.26 173.94 80
6 08/20/2023 17:06:36 0.01,-104.72 -0.31,-103.30 162.43 80
7 08/21/2023 05:28:00 -0.01,-104.71 -0.83,-108.48 429.48 80
8 08/22/2023 16:54:26 0.01,-104.73 -0.92,-100.34 498.59 80
9 08/23/2023 05:15:51 -0.01,-104.71 -0.16,-105.54 93.51 80
10 08/25/2023 05:01:01 -0.01,-104.71 0.46,-102.58 242.02 80
11 08/25/2023 17:22:17 0.00,-104.72 0.64,-107.74 343.31 80
